Regional Weather Roundup
Issued by NWS

Home | Current Version | Previous Version | Graphics & Text | Print | Product List | Glossary On
Versions: 1 2 3 4 5 6 7 8 9 10 11 12 13 14 15 16 17 18 19 20 21 22 23 24 25 26 27 28 29 30 31 32 33 34 35 36 37 38 39 40 41 42 43 44 45 46 47 48 49 50
000
ASUS43 KLSX 222207
RWRMO

WEATHER SUMMARY FOR MISSOURI
NATIONAL WEATHER SERVICE SPRINGFIELD MO
500 PM CDT MON SEP 22 2014

NOTE: "FAIR" INDICATES FEW OR NO CLOUDS BELOW 12,000 FEET WITH NO
       SIGNIFICANT WEATHER AND/OR OBSTRUCTIONS TO VISIBILITY.
       CURRENT SKY AND/OR WEATHER CONDITIONS ARE NOT AVAILABLE FOR
       CHILLICOTHE AND FARMINGTON.

MOZ001>031-035>038-043-044-053-054-222300-
...NORTHERN AND WESTERN MISSOURI...

CITY           SKY/WX    TMP DP  RH WIND       PRES   REMARKS
KANSAS CTY INT MOSUNNY   72  49  44 SE6       30.23F
KANSAS C DTWN  SUNNY     75  51  43 VRB5      30.22F
LEE`S SUMMIT   SUNNY     74  52  46 VRB3      30.24F
ST JOSEPH      SUNNY     75  50  41 S3        30.22F
CHILLICOTHE      N/A     74  50  42 VRB3      30.24F
KIRKSVILLE     SUNNY     71  49  45 W3        30.25F

$$
MOZ066>068-077>081-088>096-101>105-222300-
...SOUTHWEST MISSOURI...

CITY           SKY/WX    TMP DP  RH WIND       PRES   REMARKS
SPRINGFIELD    SUNNY     74  48  39 NE7       30.23F
JOPLIN         SUNNY     74  51  44 CALM      30.23F

$$
MOZ032>034-039>042-045>050-055>058-069>072-222300-
...CENTRAL MISSOURI...

CITY           SKY/WX    TMP DP  RH WIND       PRES   REMARKS
COLUMBIA       SUNNY     72  49  44 NE5       30.24F
JEFFERSON CITY SUNNY     74  44  34 SE7       30.22F
ROLLA          SUNNY     72  46  39 NE7       30.22F
SEDALIA        SUNNY     75  49  39 CALM      30.24F
OSAGE BEACH    SUNNY     73  48  40 NE6       30.23F

$$
MOZ051-052-059>065-222300-
...EAST CENTRAL MISSOURI...

CITY           SKY/WX    TMP DP  RH WIND       PRES   REMARKS
ST LOUIS INTL  MOSUNNY   75  47  36 CALM      30.23F
SPIRIT OF STL  SUNNY     73  46  38 NW5       30.23F
ST CHARLES     SUNNY     73  47  39 W8        30.22F

$$
MOZ072>076-082>087-097>100-106>115-222300-
...SOUTH CENTRAL AND SOUTHEAST MISSOURI...

CITY           SKY/WX    TMP DP  RH WIND       PRES   REMARKS
CAPE GIRARDEAU SUNNY     73  47  39 NE9       30.20F
FARMINGTON     SUNNY     72  48  43 N5        30.25S
POPLAR BLUFF   SUNNY     74  46  36 NE8       30.20S
WEST PLAINS    SUNNY     75  48  38 VRB5      30.23F

$$



USA.gov is the U.S. government's official web portal to all federal, state and local government web resources and services.